Dewpoint
72 72 72 73 72 72 72 72 72 72 73 73 73 73 74 75 76 76 75 76 76 76 75 75 77 77 78 77 78 77 77 76 77 76 76 76 75 74 73 74 73 73
72 74 74 73 73 74 73 73 73 73 73 73 74 74 74 75 74 76 75 75 76 76 76 76 77 77 77 77 77 76 75 77 76 77 76 76 75 75 75 74 74 74
72 74 74 73 72 73 73 74 73 73 73 73 74 74 74 75 74 75 75 75 75 75 76 76 77 77 76 76 76 76 76 75 75 74 76 75 76 76 76 74 74 74
73 73 73 73 73 73 74 74 74 74 74 74 74 74 74 73 74 74 75 77 75 75 75 76 76 76 76 76 76 76 75 75 75 75 76 76 76 75 75 75 76 75
72 73 74 74 74 74 75 75 74 74 74 74 74 75 75 75 74 74 74 75 76 75 75 76 76 76 76 76 76 75 75 75 76 76 76 76 76 76 75 75 75 74
73 73 74 74 74 74 74 74 74 74 74 74 74 75 75 74 74 74 74 74 74 75 75 75 75 75 76 76 76 76 75 75 75 76 76 75 75 75 74 75 75 74
73 73 73 74 73 73 74 74 74 75 73 74 75 74 74 74 74 74 74 74 74 75 75 75 76 76 76 76 76 75 75 75 75 75 75 75 76 75 75 75 76 75
73 73 73 74 73 73 73 73 73 74 74 74 73 74 74 73 74 73 74 74 73 74 75 75 76 76 75 75 75 75 75 74 74 75 75 75 75 74 74 74 75 75
73 73 73 73 73 73 72 72 72 73 74 73 73 73 73 73 73 73 74 74 74 74 74 74 75 75 75 75 75 75 75 74 74 75 75 74 74 74 74 74 74 75
73 73 73 73 73 73 72 72 72 72 73 72 72 72 72 73 73 72 73 74 74 74 74 74 74 74 74 75 75 75 75 75 75 75 75 74 74 74 74 74 74 74
73 73 73 73 73 73 72 72 72 72 72 72 72 71 72 72 73 73 73 73 72 73 74 74 74 74 74 74 74 75 75 74 75 75 74 75 75 75 75 75 75 74
73 72 73 73 73 73 73 72 72 71 71 71 72 71 72 71 72 72 72 72 72 73 73 73 74 74 74 74 73 74 74 74 75 75 74 74 74 74 74 75 74 74
72 72 72 73 73 73 73 73 72 71 70 70 71 71 71 70 70 72 73 72 72 72 71 72 73 72 73 74 74 74 74 74 74 74 74 75 75 75 74 74 73 73
72 72 73 73 73 73 73 73 72 71 71 71 71 70 70 69 69 69 70 72 72 72 72 72 72 72 73 73 73 73 73 74 74 73 73 74 75 75 74 73 73 72
72 72 72 72 73 73 72 72 72 71 71 71 71 70 69 69 69 69 69 70 71 71 72 72 71 72 72 73 73 73 73 73 73 73 74 74 74 74 73 73 74 72
71 72 72 72 72 72 72 72 71 71 71 70 70 70 70 70 70 69 68 68 69 70 71 71 71 72 73 74 74 73 73 73 73 74 74 74 74 74 72 72 72 73
71 71 71 71 71 71 72 72 72 71 71 71 72 72 73 73 72 70 69 68 68 68 69 69 70 70 71 69 70 73 74 74 74 74 75 74 74 74 73 73 72 72
71 70 70 70 71 71 71 72 72 72 71 71 72 72 73 73 71 70 71 70 69 68 68 69 70 66 65 65 67 67 71 74 74 73 73 74 74 73 73 72 72 72
70 70 70 70 71 71 71 72 73 73 72 72 72 73 73 72 71 70 71 71 71 71 70 70 67 63 62 63 64 64 65 71 71 73 72 72 73 73 73 73 73 73
69 70 70 70 70 71 71 71 72 72 72 71 70 68 69 69 70 70 71 71 70 70 69 68 66 61 60 61 61 62 64 67 70 71 72 72 73 73 72 73 73 72
69 70 70 70 70 70 71 70 70 70 69 69 69 69 69 69 69 70 71 71 70 69 69 65 62 59 59 59 59 60 62 68 70 72 73 73 73 73 73 73 73 72
69 69 69 69 69 69 69 68 67 68 68 69 69 69 70 70 70 70 70 70 70 69 69 67 63 58 58 58 59 59 64 67 69 71 72 73 73 73 73 73 73 73
67 67 68 68 68 68 68 68 68 68 68 69 68 68 69 69 70 70 70 70 70 70 69 67 63 58 56 56 57 59 65 66 67 69 71 72 72 73 73 73 73 72
67 67 67 67 67 67 67 67 68 68 68 69 67 67 68 69 69 70 71 70 71 69 68 65 63 59 54 54 55 57 64 67 67 68 68 70 71 72 73 73 73 74
66 66 67 67 67 67 68 68 68 68 68 68 68 68 67 68 70 70 68 66 67 67 67 63 62 60 54 53 54 55 62 66 67 67 68 69 70 71 72 71 71 73
66 66 66 67 67 67 67 67 67 67 67 67 67 67 67 66 65 64 63 63 63 63 62 61 60 59 57 52 52 54 57 65 66 67 66 66 67 69 70 71 70 70